STARLING 1

导读

STARLING 1是美国NASA星城任务四颗立方体卫星中的一颗,于北京时间2023年7月18日,由Rocket Lab通过Electron运载火箭在新西兰玛西亚发射场成功送入距地球约355英里的近地轨道。它承担自主集群飞行技术测试任务,验证自主机动、自组织通信网络、光学相对导航和分布式自主协同能力,为未来深空卫星群自主协作和太空交通管理奠定技术基础。

基本信息
目录编号:
57388
目录名称:
STARLING 1
国际标识:
2023-100C
轨道中心:
EARTH
卫星名称:
STARLING 1
卫星全名:
--
卫星状态:
在轨 (已飞行1063 天)
发射日期:
2023-07-18 UTC
国别 :
美国 (US)
星等 :
--
轨道信息
数据来源 国际轨道数据
星历时间: 2026-06-15T07:48:13+0800
5小时前
查看轨道信息
半长轴: 6924.447km
偏心率: 0.0004235
轨道倾角: 99.512°
近地点辐角 289.787°
升交点赤经 183.840°
平近点角 70.290°
近地点: 543.377km
远地点: 549.243km
周期: 95.573分钟
每日圈数: 15.066944
详细信息
使用方式:
暂无
2D轨道图
3D轨道图
轨道高度分析图
轨道倾角分析图
轨道综合分析图
查看轨道综合分析图